Regional Weather Roundup
Issued by NWS Northern Indiana

Home | Current Version | Previous Version | Text Only | Print | Product List | Glossary Off
Versions: 1 2 3 4 5 6 7 8 9 10 11 12 13 14 15 16 17 18 19 20 21 22 23 24 25 26 27 28 29 30 31 32 33 34 35 36 37 38 39 40 41 42 43 44 45 46 47 48 49 50

000
ASUS43 KIWX 221910
RWRIWX

KIWX WEATHER ROUNDUP
NATIONAL WEATHER SERVICE NORTHERN INDIANA
200 PM EST SUN JAN 22 2017

NOTE: "FAIR" INDICATES FEW OR NO CLOUDS BELOW 12,000 FEET WITH NO
SIGNIFICANT WEATHER AND/OR OBSTRUCTIONS TO VISIBILITY.

* THESE STATIONS ARE NOT UNDER NWS QUALITY CONTROL. THEY ALSO MAY NOT
  REPORT WEATHER SUCH AS PRECIPITATION OR FOG.

INZ001>027-222000-
NORTHERN INDIANA

CITY           SKY/WX    TMP DP  RH WIND       PRES   REMARKS
GARY*          FOG       41  41 100 NE5       29.62F VSB 1/4
VALPARAISO     CLOUDY    47  44  90 N9        29.59F
LAPORTE*       CLOUDY    43  42  98 N10       29.59S FOG
KNOX*          CLOUDY    43  36  75 N8        29.57F
SOUTH BEND     FOG       42  42 100 N7        29.59F VSB 1/2
ELKHART*       CLOUDY    45  43  93 CALM      29.58F FOG
GOSHEN         CLOUDY    50  47  89 N7        29.56F FOG
ROCHESTER*     MOSUNNY   54  54 100 N5        29.55F
WARSAW*        CLOUDY    50  50 100 N7        29.55F
FORT WAYNE     PTSUNNY   61  49  64 NE5       29.54F
PERU/GRISSOM   MOSUNNY   58  54  85 N6        29.52F
MARION*        MOSUNNY   61  52  72 NE5       29.52F

$$
INZ028>050-222000-
CENTRAL INDIANA

CITY           SKY/WX    TMP DP  RH WIND       PRES   REMARKS
LAFAYETTE      MOSUNNY   52  48  86 N12       29.53F
KOKOMO*        MOSUNNY   59  53  80 N7        29.53F
MUNCIE*        MOSUNNY   62  52  69 NE6       29.50F
INDIANAPOLIS   CLOUDY    60  51  72 N8        29.48F

$$
MIZ043>046-050>051-056>058-064>065-071>073-077>080-222000-
SOUTHWEST LOWER MICHIGAN

CITY           SKY/WX    TMP DP  RH WIND       PRES   REMARKS
BATTLE CREEK   FOG       44  44 100 N6        29.59F VSB 1
BENTON HARBOR  CLOUDY    43  41  93 N3        29.60F FOG
COLDWATER*     CLOUDY    50  50 100 N6        29.58F
HILLSDALE*     CLOUDY    52  48  87 N5        29.57F
HOLLAND        CLOUDY    44  42  93 E7        29.62F
GRAND RAPIDS   FOG       41  39  93 N5        29.62F VSB 1/2
KALAMAZOO      FOG       41  39  93 N7        29.60F VSB 1
STURGIS*       CLOUDY    48  48 100 NE6       29.57F FOG
THREE RIVERS*  FOG       43  43 100 N5        29.59F VSB 1/2

$$
OHZ001>008-015>018-024>025-222000-
NORTHWEST OHIO

CITY           SKY/WX    TMP DP  RH WIND       PRES   REMARKS
DEFIANCE       MOSUNNY   57  50  77 N8        29.55F
FINDLAY        MOSUNNY   65  49  56 NE3       29.53F
TOLEDO EXPRESS SUNNY     61  52  72 NW6       29.56F
TOLEDO METCALF SUNNY     56  49  77 N9        29.57F
LIMA           MOSUNNY   62  52  69 NE5       29.52F

$$
AND FOR LAKE MICHIGAN COASTAL AND OPEN LAKE BUOY OBSERVATIONS

STATION/POSITION TEMP    WIND        PRES    VSBY  WAVE
                 AIR SEA DIR/SP/G                  HT/PER
                 (F)     (DEG/KT/KT) (MB)    (MI)  (FT/S)
CALUMET HARBOR    39     350/  6/  9 1002.5F
MICHIGAN CITY     36     360/  7/  7   N/A
BURNS HARBOR      35      10/  7/ 10 1003.4
SAINT JOSEPH      41      20/  8/ 10 1003.4

$$
&&




USA.gov is the U.S. government's official web portal to all federal, state and local government web resources and services.